Location: Berlise
(49.6641°N, 4.1077°E)
Time: 21:44:26
(UTC+00:00)

MOS 1-B - Pass Details

Date: 27 January 2021
Orbit: 905 x 914 km, 99.4° (Epoch: 01 March)

Event Time Altitude Azimuth Distance (km) Brightness Sun altitude
Rises 06:08:37 0° 16° (NNE) 3,545 7.5 -12.0°
Reaches altitude 10° 06:11:02 10° 16° (NNE) 2,599 6.8 -11.6°
Maximum altitude 06:16:51 88° 103° (ESE) 913 4.4 -10.7°
Drops below altitude 10° 06:22:37 10° 197° (SSW) 2,581 6.7 -9.8°
Sets 06:25:01 0° 198° (SSW) 3,519 7.4 -9.4°
